KG5VSR Weather Reports


time (UTC)temp
C
wind
direction
speed
KPH
gust
KPH
rain 1hr
cm
rain 24hr
cm
rain mn
cm
humidity
%
barometer
mb
20260902004027 35 315 0.0 0.0 0.00 0.00 0.00 51 1013.3
20260902001027 35 189 3.2 3.2 0.00 0.00 0.00 49 1013.3
20260901234025 36 18 0.0 1.6 0.00 0.00 0.00 48 1013.4
20260901231021 35 118 1.6 1.6 0.00 0.00 0.00 49 1013.8
20260901224021 36 60 0.0 0.0 0.00 0.00 0.00 48 1013.7
20260901221017 37 68 0.0 1.6 0.00 0.00 0.00 47 1014.0
20260901214013 37 86 0.0 1.6 0.00 0.00 0.00 46 1014.0
20260901211014 37 221 4.8 8.0 0.00 0.00 0.00 47 1014.2
20260901204008 37 73 1.6 4.8 0.00 0.00 0.00 46 1014.5
20260901201008 37 110 4.8 4.8 0.00 0.00 0.00 47 1014.8
20260901194002 35 62 3.2 4.8 0.00 0.00 0.00 50 1015.3
20260901191001 37 37 1.6 1.6 0.00 0.00 0.00 45 1015.4
20260901183956 36 60 1.6 3.2 0.00 0.00 0.00 48 1016.4
20260901180953 35 326 1.6 4.8 0.00 0.00 0.00 53 1016.5
20260901173950 35 165 6.4 9.7 0.00 0.00 0.00 51 1017.3
20260901170949 36 198 3.2 8.0 0.00 0.00 0.00 53 1017.6
20260901163948 33 277 1.6 3.2 0.00 0.00 0.00 58 1017.6
20260901160949 34 299 0.0 0.0 0.00 0.00 0.00 57 1017.9
20260901153946 32 136 3.2 3.2 0.00 0.00 0.00 61 1017.8
20260901150946 31 180 4.8 4.8 0.00 0.00 0.00 65 1017.7
20260901143945 30 186 1.6 1.6 0.00 0.00 0.00 69 1018.0
20260901140945 30 184 1.6 1.6 0.00 0.00 0.00 70 1017.9
20260901133942 30 228 0.0 1.6 0.00 0.00 0.00 71 1017.7
20260901130940 28 224 1.6 1.6 0.00 0.00 0.00 73 1018.1
20260901123940 27 259 0.0 0.0 0.00 0.00 0.00 77 1017.5
20260901120940 26 163 0.0 0.0 0.00 0.00 0.00 79 1017.0
20260901113938 26 266 0.0 0.0 0.00 0.00 0.00 79 1016.9
20260901110938 26 244 0.0 0.0 0.00 0.00 0.00 76 1016.8
20260901103935 26 257 0.0 0.0 0.00 0.00 0.00 75 1016.6
20260901100931 27 276 0.0 0.0 0.00 0.00 0.00 73 1016.8
20260901093929 27 202 0.0 0.0 0.00 0.00 0.00 70 1017.0
20260901090929 27 258 0.0 0.0 0.00 0.00 0.00 70 1016.7
20260901083925 28 174 0.0 0.0 0.00 0.00 0.00 68 1016.6
20260901080920 28 228 0.0 0.0 0.00 0.00 0.00 66 1016.5
20260901073917 29 233 0.0 0.0 0.00 0.00 0.00 64 1016.6
20260901070913 30 165 1.6 3.2 0.00 0.00 0.00 62 1016.3
20260901063909 30 83 0.0 0.0 0.00 0.00 0.00 60 1016.3
20260901060907 30 104 1.6 3.2 0.00 0.00 0.00 58 1016.0
20260901053905 31 55 1.6 1.6 0.00 0.00 0.00 56 1015.9
20260901050903 30 344 0.0 1.6 0.00 0.00 0.00 55 1015.6
20260901043858 30 334 0.0 0.0 0.00 0.00 0.00 58 1015.5
20260901040856 29 299 0.0 0.0 0.00 0.00 0.00 60 1015.2
20260901033854 30 299 0.0 0.0 0.00 0.00 0.00 58 1015.2
20260901030854 30 299 0.0 0.0 0.00 0.00 0.00 53 1015.2
20260901023854 31 299 0.0 0.0 0.00 0.00 0.00 51 1014.7
20260901020849 32 336 0.0 0.0 0.00 0.00 0.00 48 1014.5
20260901013848 33 261 0.0 0.0 0.00 0.00 0.00 45 1014.1
20260901010848 34 202 0.0 1.6 0.00 0.00 0.00 42 1013.8